TimeMDT,TemperatureF,Dew PointF,Humidity,Sea Level PressureIn,VisibilityMPH,Wind Direction,Wind SpeedMPH,Gust SpeedMPH,PrecipitationIn,Events,Conditions,WindDirDegrees,DateUTC
12:53 AM,48.9,9.0,20,30.12,10.0,West,8.1,-,N/A,,Clear,280,2013-03-14 06:53:00
1:53 AM,48.0,10.9,22,30.12,10.0,WNW,9.2,-,N/A,,Clear,290,2013-03-14 07:53:00
2:53 AM,46.9,12.9,25,30.11,10.0,WNW,6.9,-,N/A,,Clear,290,2013-03-14 08:53:00
3:53 AM,48.9,14.0,25,30.10,10.0,NW,6.9,-,N/A,,Clear,310,2013-03-14 09:53:00
4:53 AM,46.9,14.0,27,30.12,10.0,NNW,4.6,-,N/A,,Clear,340,2013-03-14 10:53:00
5:53 AM,44.1,12.9,28,30.14,10.0,West,3.5,-,N/A,,Clear,270,2013-03-14 11:53:00
6:53 AM,44.1,15.1,31,30.15,10.0,North,5.8,-,N/A,,Clear,350,2013-03-14 12:53:00
7:53 AM,46.9,16.0,29,30.19,10.0,NW,6.9,-,N/A,,Clear,310,2013-03-14 13:53:00
8:53 AM,55.9,16.0,21,30.18,10.0,North,5.8,-,N/A,,Clear,360,2013-03-14 14:53:00
9:53 AM,61.0,17.1,18,30.19,10.0,NNE,6.9,-,N/A,,Clear,20,2013-03-14 15:53:00
10:53 AM,64.9,16.0,15,30.18,10.0,ENE,4.6,-,N/A,,Clear,60,2013-03-14 16:53:00
11:53 AM,69.1,16.0,13,30.19,10.0,Variable,3.5,-,N/A,,Clear,0,2013-03-14 17:53:00
12:53 PM,72.0,16.0,12,30.15,10.0,ENE,6.9,-,N/A,,Clear,60,2013-03-14 18:53:00
1:53 PM,75.0,16.0,11,30.12,10.0,ENE,10.4,-,N/A,,Clear,60,2013-03-14 19:53:00
2:53 PM,75.0,15.1,10,30.09,10.0,ENE,6.9,16.1,N/A,,Clear,60,2013-03-14 20:53:00
3:53 PM,75.9,14.0,10,30.05,10.0,Variable,4.6,-,N/A,,Clear,0,2013-03-14 21:53:00
4:53 PM,75.9,14.0,10,30.04,10.0,East,3.5,-,N/A,,Clear,80,2013-03-14 22:53:00
5:53 PM,75.9,12.9,9,30.04,10.0,SE,5.8,-,N/A,,Clear,130,2013-03-14 23:53:00
6:53 PM,73.9,12.9,10,30.04,10.0,East,4.6,-,N/A,,Clear,100,2013-03-15 00:53:00
7:53 PM,69.1,14.0,12,30.05,10.0,East,3.5,-,N/A,,Clear,90,2013-03-15 01:53:00
8:53 PM,66.9,14.0,13,30.04,10.0,Calm,Calm,-,N/A,,Clear,0,2013-03-15 02:53:00
9:53 PM,61.0,12.9,15,30.05,10.0,Calm,Calm,-,N/A,,Clear,0,2013-03-15 03:53:00
10:53 PM,57.0,10.9,16,30.06,10.0,WNW,8.1,-,N/A,,Clear,300,2013-03-15 04:53:00
11:53 PM,52.0,12.0,20,30.06,10.0,WNW,9.2,-,N/A,,Clear,300,2013-03-15 05:53:00